GW6789 Weather Reports


time (UTC)temp
C
wind
direction
speed
KPH
gust
KPH
rain 1hr
cm
rain 24hr
cm
rain mn
cm
humidity
%
barometer
mb
20260505022304 17 144 3.2 3.2 0.00 0.00 0.00 63 1008.7
20260505021303 18 69 1.6 1.6 0.00 0.00 0.00 62 1008.6
20260505020300 17 146 4.8 4.8 0.00 0.00 0.00 63 1008.8
20260505015254 18 80 1.6 4.8 0.00 0.00 0.00 63 1008.8
20260505014249 18 121 9.7 16.1 0.00 0.00 0.00 64 1008.8
20260505013248 18 338 1.6 1.6 0.00 0.00 0.00 65 1009.0
20260505012243 18 59 1.6 1.6 0.00 0.00 0.00 65 1008.8
20260505011242 19 120 1.6 1.6 0.00 0.00 0.00 64 1009.0
20260505010240 20 242 3.2 4.8 0.00 0.00 0.00 63 1009.1
20260505005240 20 133 4.8 4.8 0.00 0.00 0.00 62 1009.1
20260505004239 20 175 3.2 3.2 0.00 0.00 0.00 60 1009.1
20260505003234 21 42 0.0 1.6 0.00 0.00 0.00 58 1009.1
20260505002233 21 155 4.8 4.8 0.00 0.00 0.00 53 1009.1
20260505001228 21 64 1.6 1.6 0.00 0.00 0.00 53 1009.2
20260505000229 21 44 3.2 4.8 0.00 0.00 0.00 52 1009.4
20260504235227 21 34 1.6 3.2 0.00 0.00 0.00 52 1009.4
20260504234227 21 13 4.8 4.8 0.00 0.00 0.00 54 1009.4
20260504233225 21 189 6.4 9.7 0.00 0.00 0.00 52 1009.5
20260504232225 21 234 8.0 9.7 0.00 0.00 0.00 53 1009.1
20260504231224 21 118 4.8 4.8 0.00 0.00 0.00 52 1009.5
20260504230219 21 30 1.6 1.6 0.00 0.00 0.00 55 1009.6
20260504225219 21 31 1.6 3.2 0.00 0.00 0.00 53 1009.5
20260504224220 21 347 3.2 3.2 0.00 0.00 0.00 54 1009.4
20260504223217 21 216 6.4 8.0 0.00 0.00 0.00 53 1009.6
20260504222217 21 58 1.6 3.2 0.00 0.00 0.00 55 1009.7
20260504221217 21 286 4.8 8.0 0.00 0.00 0.00 56 1009.6
20260504220217 21 26 6.4 9.7 0.00 0.00 0.00 55 1009.6
20260504215217 22 356 4.8 9.7 0.00 0.00 0.00 55 1009.6
20260504214215 22 22 3.2 3.2 0.00 0.00 0.00 55 1009.6
20260504213214 22 23 3.2 3.2 0.00 0.00 0.00 54 1009.7
20260504212213 23 334 3.2 3.2 0.00 0.00 0.00 52 1009.5
20260504211212 25 26 3.2 3.2 0.00 0.00 0.00 48 1009.8
20260504210207 24 34 3.2 4.8 0.00 0.00 0.00 49 1009.8
20260504205201 23 146 4.8 4.8 0.00 0.00 0.00 55 1010.0
20260504204158 22 140 1.6 3.2 0.00 0.00 0.00 63 1010.0
20260504203154 22 176 8.0 9.7 0.00 0.00 0.00 63 1009.9
20260504202151 25 57 1.6 3.2 0.00 0.00 0.00 55 1009.8
20260504201146 25 18 1.6 1.6 0.00 0.00 0.00 44 1009.9
20260504200145 25 126 3.2 3.2 0.00 0.00 0.00 58 1010.2
20260504195143 23 137 1.6 3.2 0.00 0.00 0.00 56 1010.0
20260504194142 23 196 6.4 8.0 0.00 0.00 0.00 57 1010.0
20260504193137 23 162 8.0 9.7 0.00 0.00 0.00 55 1010.2
20260504192132 23 59 1.6 1.6 0.00 0.00 0.00 53 1010.1
20260504191132 21 155 4.8 4.8 0.00 0.00 0.00 59 1010.0
20260504190131 21 175 6.4 8.0 0.00 0.00 0.00 63 1010.3
20260504185130 21 128 3.2 3.2 0.00 0.00 0.00 59 1010.3
20260504184126 21 196 6.4 8.0 0.00 0.00 0.00 57 1010.1
20260504183122 22 187 4.8 4.8 0.00 0.00 0.00 53 1010.1
20260504182122 21 83 4.8 4.8 0.00 0.00 0.00 55 1010.1
20260504181117 21 147 3.2 3.2 0.00 0.00 0.00 54 1010.1
20260504180114 21 41 1.6 1.6 0.00 0.00 0.00 52 1010.2
20260504175114 20 165 4.8 4.8 0.00 0.00 0.00 60 1010.3
20260504174114 18 167 4.8 8.0 0.00 0.00 0.00 62 1010.4
20260504173109 18 341 0.0 0.0 0.00 0.00 0.00 64 1010.5
20260504172107 18 197 3.2 3.2 0.00 0.00 0.00 64 1010.1
20260504171107 18 207 4.8 4.8 0.00 0.00 0.00 64 1010.2
20260504170106 17 128 1.6 3.2 0.00 0.00 0.00 71 1010.2
20260504151038 16 55 0.0 0.0 0.00 0.00 0.00 69 1009.9
20260504141026 12 41 1.6 1.6 0.00 0.00 0.00 80 1009.5
20260504081915 13 23 1.6 1.6 0.00 0.00 0.00 71 1008.7
20260504080914 13 28 1.6 1.6 0.00 0.00 0.00 72 1009.0
20260504045843 16 9 1.6 1.6 0.00 0.00 0.00 61 1009.0
20260504044841 16 3 1.6 3.2 0.00 0.00 0.00 61 1009.1
20260504043835 16 334 1.6 3.2 0.00 0.00 0.00 58 1008.9
20260504042835 16 18 1.6 1.6 0.00 0.00 0.00 61 1009.2
20260504041834 16 12 1.6 1.6 0.00 0.00 0.00 60 1009.1
20260504040832 17 21 0.0 0.0 0.00 0.00 0.00 59 1009.1
20260504035831 17 15 1.6 1.6 0.00 0.00 0.00 57 1009.0
20260504034826 18 15 0.0 1.6 0.00 0.00 0.00 56 1008.9
20260504033826 18 19 0.0 0.0 0.00 0.00 0.00 56 1008.9
20260504032826 18 15 1.6 1.6 0.00 0.00 0.00 54 1008.8
20260504031821 18 5 1.6 1.6 0.00 0.00 0.00 54 1008.7
20260504030820 19 27 0.0 0.0 0.00 0.00 0.00 53 1008.8
20260504025819 19 26 0.0 0.0 0.00 0.00 0.00 51 1009.1
20260504024819 20 21 0.0 0.0 0.00 0.00 0.00 51 1008.8
20260504023818 20 8 1.6 1.6 0.00 0.00 0.00 50 1009.2